Weather History for Fort Myers, FL

Change the Weather History Date:

Friday, April 26, 2013

  Actual Average Record
Temperature  
Mean Temperature 76 °F 75 °F  
Max Temperature 88 °F 86 °F 95 °F (1991)
Min Temperature 64 °F 65 °F 49 °F (1983)
Degree Days  
Heating Degree Days 0 0  
Month to date heating degree days 0 0  
Since 1 July heating degree days 201 284  
Cooling Degree Days 11 10  
Month to date cooling degree days 312 224  
Year to date cooling degree days 694 585  
Growing Degree Days 26 (Base 50)    
Moisture  
Dew Point 61 °F    
Average Humidity 60    
Maximum Humidity 87    
Minimum Humidity 40    
Precipitation  
Precipitation 0.00 in 0.07 in 2.01 in (2003)
Month to date precipitation 3.09 1.91  
Year to date precipitation 6.35 8.88  
Sea Level Pressure  
Sea Level Pressure 30.19 in    
Wind  
Wind Speed 7 mph (East)    
Max Wind Speed 18 mph    
Max Gust Speed 25 mph    
Visibility 10 miles    
Events      
T = Trace of Precipitation, MM = Missing Value Source: NWS Daily Summary

Daily Weather History Graph

Daily Weather History Graph

Search for Another Location

Airport:

Trip Planner

Search our weather history database for the weather conditions in past years. The results will help you decide how hot, cold, wet, or windy it might be!

Date:

Astronomy

Apr. 26, 2013 Rise Set
Actual Time 6:53 AM EDT 7:57 PM EDT
Civil Twilight 6:29 AM EDT 8:21 PM EDT
Nautical Twilight 6:00 AM EDT 8:50 PM EDT
Astronomical Twilight 5:31 AM EDT 9:19 PM EDT
Moon 9:10 PM EDT (4/26) 7:24 AM EDT (4/26)
Length of Visible Light 13h 52m
Length of Day
13h 03m
Full, 99% of the Moon is Illuminated
Apr 26
Full
May 2
Last Quarter
May 9
New
May 18
First Quarter
May 25
Full

Hourly Weather History & Observations

Time (EDT) Temp. Heat Index Dew Point Humidity Pressure Visibility Wind Dir Wind Speed Gust Speed Precip Events Conditions
12:53 AM 69.1 °F - 61.0 °F 75% 30.21 in 10.0 mi East 3.5 mph - N/A   Clear
1:53 AM 68.0 °F - 61.0 °F 78% 30.19 in 10.0 mi ESE 3.5 mph - N/A   Clear
3:53 AM 66.0 °F - 60.1 °F 81% 30.16 in 10.0 mi Calm Calm - N/A   Clear
4:53 AM 66.0 °F - 60.1 °F 81% 30.15 in 10.0 mi Calm Calm - N/A   Clear
5:53 AM 64.9 °F - 60.1 °F 84% 30.16 in 10.0 mi Calm Calm - N/A   Clear
6:53 AM 64.0 °F - 60.1 °F 87% 30.18 in 10.0 mi Calm Calm - N/A   Clear
7:53 AM 68.0 °F - 61.0 °F 78% 30.20 in 10.0 mi NE 4.6 mph - N/A   Clear
8:53 AM 72.0 °F - 61.0 °F 68% 30.21 in 10.0 mi East 5.8 mph - N/A   Clear
9:53 AM 75.9 °F - 61.0 °F 60% 30.23 in 10.0 mi ESE 6.9 mph - N/A   Clear
10:53 AM 78.1 °F - 60.1 °F 54% 30.24 in 10.0 mi ESE 8.1 mph - N/A   Clear
11:53 AM 82.9 °F 83.2 °F 60.1 °F 46% 30.24 in 10.0 mi East 9.2 mph - N/A   Clear
12:53 PM 84.9 °F 84.8 °F 60.1 °F 43% 30.22 in 10.0 mi ENE 12.7 mph 19.6 mph N/A   Clear
1:53 PM 87.1 °F 87.0 °F 61.0 °F 41% 30.20 in 10.0 mi ENE 12.7 mph - N/A   Scattered Clouds
2:53 PM 87.1 °F 86.7 °F 60.1 °F 40% 30.19 in 10.0 mi East 13.8 mph 24.2 mph N/A   Partly Cloudy
3:53 PM 86.0 °F 86.1 °F 61.0 °F 43% 30.17 in 10.0 mi ESE 15.0 mph 21.9 mph N/A   Partly Cloudy
4:53 PM 86.0 °F 85.7 °F 60.1 °F 41% 30.15 in 10.0 mi East 11.5 mph 21.9 mph N/A   Clear
5:53 PM 84.9 °F 84.8 °F 60.1 °F 43% 30.14 in 10.0 mi East 11.5 mph - N/A   Scattered Clouds
6:53 PM 84.0 °F 84.0 °F 60.1 °F 44% 30.14 in 10.0 mi East 10.4 mph - N/A   Clear
7:53 PM 81.0 °F 81.3 °F 59.0 °F 47% 30.16 in 10.0 mi East 8.1 mph - N/A   Clear
8:33 PM 78.8 °F - 60.8 °F 54% 30.16 in 10.0 mi East 5.8 mph - N/A   Partly Cloudy
8:53 PM 78.1 °F - 60.1 °F 54% 30.17 in 10.0 mi East 8.1 mph - N/A   Partly Cloudy
9:53 PM 75.9 °F - 61.0 °F 60% 30.19 in 10.0 mi East 4.6 mph - N/A   Clear
10:53 PM 75.0 °F - 61.0 °F 62% 30.21 in 10.0 mi ESE 6.9 mph - N/A   Clear
11:53 PM 73.0 °F - 62.1 °F 68% 30.22 in 10.0 mi East 5.8 mph - N/A   Clear